Location: Buch
(49.7331°N, 12.1098°E)
Time: 08:53:43
(UTC+00:00)

Gbstr 26 Del rocket - Pass Details

Date: 12 May 2021
Orbit: 493 x 1263 km, 51.8° (Epoch: 13 June)

Event Time Altitude Azimuth Distance (km) Brightness Sun altitude
Rises 22:05:52 0° 292° (WNW) 4,090 7.8 -20.5°
Reaches altitude 10° 22:08:53 10° 290° (WNW) 3,044 7.0 -20.7°
Maximum altitude 22:16:08 64° 211° (SSW) 1,110 4.0 -20.9°
Enters shadow 22:18:37 37° 146° (SE) 1,427 4.4 -21.0°
